Location: Bannatyne
(13.0833°N, 59.5333°W)
Time: 04:04:30
(UTC+00:00)

deb Explorer IX - Pass Details

Date: 28 January 2020
Orbit: 549 x 1099 km, 38.8° (Epoch: 18 February)

Event Time Altitude Azimuth Distance (km) Brightness Sun altitude
Rises 05:08:30 0° 327° (NNW) 3,900 - -75.2°
Reaches altitude 10° 05:12:40 10° 348° (NNW) 2,926 - -74.3°
Maximum altitude 05:16:43 16° 23° (NNE) 2,486 - -73.3°
Drops below altitude 10° 05:20:38 10° 57° (ENE) 2,811 - -72.4°
Sets 05:24:29 0° 79° (E) 3,668 - -71.6°
